Regional Weather Roundup
Issued by NWS

Home | Current Version | Previous Version | Graphics & Text | Print | Product List | Glossary On
Versions: 1 2 3 4 5 6 7 8 9 10 11 12 13 14 15 16 17 18 19 20 21 22 23 24 25 26 27 28 29 30 31 32 33 34 35 36 37 38 39 40 41 42 43 44 45 46 47 48 49 50
000
ASUS43 KFSD 201302
RWRSD

WEATHER ROUNDUP FOR SOUTH DAKOTA
NATIONAL WEATHER SERVICE SIOUX FALLS SD
700 AM CST TUE FEB 20 2018

NOTE: "FAIR" INDICATES FEW OR NO CLOUDS BELOW 12,000 FEET WITH NO
SIGNIFICANT WEATHER AND/OR OBSTRUCTIONS TO VISIBILITY.


SDZ001>005-009-010-012>017-201400-
NORTHWEST AND NORTH CENTRAL SOUTH DAKOTA

CITY           SKY/WX    TMP DP  RH WIND       PRES   REMARKS
BUFFALO          N/A    -10 -15  78 W9        29.97R WCI -27
FAITH            N/A      0  -2  91 NW13      30.06R WCI -18
MOBRIDGE       LGT SNOW   5   0  79 NW12      30.07S VSB 1   WCI -11
$$

SDZ012>016-024>037-041>051-057-063-072>074-201400-
SOUTHWEST AND SOUTH CENTRAL SOUTH DAKOTA

CITY           SKY/WX    TMP DP  RH WIND       PRES   REMARKS
RAPID CTY ARPT MIX PCPN  -1  -6  79 N12       30.03R WCI -18
PIERRE         LGT SNOW   3   0  87 NW14      30.11R FOG     WCI -15
CUSTER         PTCLDY    -8 -14  74 CALM      29.74R
PHILIP         CLOUDY     1  -3  83 NW10      30.11R WCI -15
PINE RIDGE     MOCLDY   -10 -13  86 CALM      30.03R FOG
SPEARFISH        N/A     -9 -15  77 CALM      29.97S
WINNER         LGT SNOW   4  -1  80 NW17      30.07R WCI -16
$$

SDZ004>011-016>023-039-040-201400-
NORTHEAST SOUTH DAKOTA

CITY           SKY/WX    TMP DP  RH WIND       PRES   REMARKS
ABERDEEN       LGT SNOW   5   1  83 N17       30.08R FOG     WCI -14
WATERTOWN      FLURRIES   3   0  87 NW13      29.94R WCI -14
BROOKINGS      FLURRIES   6   1  80 NW8       29.95R WCI  -7
SISSETON         N/A      5   1  83 NW20      30.01R WCI -15
$$

SDZ017-020-022-023-036>040-048>070-201400-
SOUTHEAST SOUTH DAKOTA

CITY           SKY/WX    TMP DP  RH WIND       PRES   REMARKS
SIOUX FALLS    FLURRIES   9   4  80 NW16      29.96S WCI  -8
HURON          LGT SNOW   4   0  83 NW20      30.06R FOG     WCI -17
MITCHELL       LGT SNOW   5   1  83 NW16      30.07R FOG     WCI -14
YANKTON        FLURRIES   6   1  80 NW21G28   30.00F WCI -14
$$

ABBREVIATIONS USED IN REMARKS
   TC - TEMPERATURE IN CELSIUS
  WCI - WIND CHILL INDEX
   HX - HEAT INDEX
  VSB - VISIBILITY





USA.gov is the U.S. government's official web portal to all federal, state and local government web resources and services.